SL-16 DEB, 39872

Orbit data source: Space-Track

SL-16 DEB, 39872 is space debris in LEO originally from a launch on Fri, 26 Mar 1993 UTC launched from the Tyuratam Missile And Space Complex (TTMTR). Debris objects in space refer to the collection of defunct objects orbiting the Earth. Examples of debris include non-operational satellites, rocket bodies, and fragments generated from explosions, collisions, or faulty payload assembly.

Loading next visibility...
Identifier
39872, 1993-016AW
Orbit
LEO
Country
Flag of CISCIS
Related business
Manufacturer
Unknown
Mission
Spacecraft
Bus & Motor
Unknown
Mass
Unknown
Launch date (UTC)
1993-03-26 (33 years ago)
Launch vehicle
Unknown
Launch site
Tyuratam Missile And Space Complex (TTMTR)
Object type
Payload
Rocket body
Debris
Shape & HBR
Unknown shape, 0.1 m
Radar Cross Section
Small (<0.1 m²)

Expand to show TLE details & history
Last TLE update: 2 days ago

TLE from 2 days ago
0 SL-16 DEB
1 39872U 93016AW  26254.17221332  .00000521  00000-0  34758-3 0  9996
2 39872  70.9827 172.1095 0136054 309.6263 118.6773 14.01363504624896
Epoch: 2026-09-11T04:07Z
TLE epoch observation values (Epoch: 2026-09-11T04:07:59.230Z)
Latitude
62.53819°
Longitude
161.19194°
Altitude
947.744 km
Speed
7.359 km/s
True Right ascension
14h 13m 33s
True Declination
62° 24' 03"
Sunlit
Object was in daylight at epoch
Visualization orbit readout
Latitude
Unknown
Longitude
Unknown
Altitude
Unknown
Speed
Unknown
Apparent Right ascension
Unknown
Apparent Declination
Unknown
Sunlit
N/A
Visualization observer readout
Local Sidereal Time
08:48:12
Azimuth
Unknown
Elevation
Unknown
Doppler factor
Unknown
Orbital elements
Apogee altitude
985.862 km
Perigee altitude
788.171 km
Semi-major axis
7,265.154 km
Eccentricity
0.01361
Inclination
70.9827°
RAAN
172.1095°
Arg. of periapsis
309.6263°
True anomaly
120.03392°
Mean anomaly
118.6773°
Eccentric anomaly
119.35673°
Mean motion
3.5049 °/min
Orbital period
102.71 mins
BSTAR
0.00034758
Loading maneuver chart data...
Computing Atmospheric mass density...
Loading historical data...
Loading historical data...
Loading historical data...
Loading historical data...
Loading historical data...
Loading historical data...
Loading historical data...

Documentation

Showing up to 5 results
|